If you wish to contribute or participate in the discussions about articles you are invited to join SKYbrary as a registered user

 Actions

Alfredo Vásquez Cobo International Airport

From SKYbrary Wiki

SKLT
Airport
ICAO: SKLT – IATA: LET
Summary
Name Alfredo Vásquez Cobo International Airport
Region South America and Caribbean
Territory Colombia CO.gif
Location Leticia, Amazonas Department
Serving Leticia
Elevation 84.43 m <br />277 ft84.43 m <br />
Coordinates 4° 11' 28.11" S, 69° 56' 29.08" W
Runways
Designator Length Width Surface ROPS
3/21 1880 m6,167.979 ft <br /> 40 m131.234 ft <br /> ASP /


METAR
Observation SKLT 221600Z 06003KT 9999 SCT015 BKN080 29/25 Q1012 RMK A2990
Station Leticia / Vasquez Cobo
Date/Time 22 October 2021 16:00:00
Wind direction 60°
Wind speed 03 kts
Lowest cloud amount scattered clouds
Temperature 29°C
Dew point 25°C
Humidity 79%
QNH 1012 hPa
Weather condition n/a

Alfredo Vásquez Cobo International Airport is an airport serving Leticia, the capital of the Amazonas Department of Colombia.

Climatology

Tropical rainforest climate (Köppen climate classification Af)

Maps

Terrain

Loading map...

Airport Layout

Loading map...


Accidents & Serious Incidents at or in vicinity of SKLT

None on SKYbrary